星链-34878 (STARLINK-34878)

导读

STARLINK-34878是美国太空探索技术公司(SpaceX)于2025年8月27日发射的星链(Starlink)系列卫星,加入低地球轨道的巨型卫星星座。作为星链星座的组成部分,它旨在为全球尤其是偏远欠发达地区提供高速低延迟宽带互联网服务,补充星链网络覆盖能力,支撑星座扩容,提升全球互联服务的稳定性与服务质量。

基本信息
目录编号:
65334
目录名称:
STARLINK-34878
国际标识:
2025-189M
轨道中心:
EARTH
卫星名称:
星链-34878
卫星全名:
星链-34878 (STARLINK-34878)
卫星状态:
在轨 (已飞行373 天)
发射日期:
2025-08-27 UTC
国别 :
美国 (US)
星等 :
--
轨道信息
数据来源 国际轨道数据
星历时间: 2026-09-03T22:55:31+0800
1天前
查看轨道信息
半长轴: 6848.862km
偏心率: 0.000121
轨道倾角: 53.158°
近地点辐角 104.567°
升交点赤经 99.231°
平近点角 255.547°
近地点: 469.896km
远地点: 471.554km
周期: 94.013分钟
每日圈数: 15.317051
详细信息
固有亮度:
5
最大亮度:
2.5
卫星平台:
Starlink V1.0
覆盖范围:
全球
运营商:
太空探索技术公司
运营商所在国:
美国
制造商(研发单位):
太空探索技术公司
制造商所在国:
美国
使用方式:
暂无
卫星简介
Starlink 计划是 SpaceX 推出的全球卫星互联网项目,通过发射低轨道卫星,为全球尤其是偏远地区提供高速、低延迟的互联网服务。自 2019 年起,Starlink 已部署数千颗卫星,旨在缩小全球数字鸿沟,推动互联网普及。该项目还为军事、航空等行业提供通信支持,带来广泛经济效益。
2D轨道图
3D轨道图
轨道高度分析图
轨道倾角分析图
轨道综合分析图
查看轨道综合分析图
交会数据列表
事件ID 空间交会对象 最接近时刻(TCA) 交会距离 交会风险概率(CRP) 交会风险指数(CRI) 操作
CDM_260906-041106-533406-965621
2026-09-06T
04:11:25+0000
2.841 km
极远距离
1.416237E-6 低风险 0.38
CDM_260904-111306-533406-948521
2026-09-04T
11:13:29+0000
2.975 km
极远距离
1.349765E-6 低风险 0.38
CDM_260905-020606-533406-914521
2026-09-05T
02:06:15+0000
2.874 km
极远距离
8.357245E-7 极低风险 0.33